M I D A S
Marine Information and Data Acquisition System
Tripno 1098 of the Zeeleeuw from 2006-03-21 08:03:09 to 2006-03-21 13:01:36
Back to CruiseResearch ActivitiesStationsMapUnderway DataData graphs

EquipmentUnitsComments
TimeDGPSUTC
LatitudeDGPSDM.mWGS84
LongitudeDGPSDM.mWGS84
SpeedMeteo Stationm/sRelative wind speed
DirectionMeteo StationdegRelative wind direction
TemperatureMeteo Stationdeg CelciusAir temperature
PressureMeteo StationPaAtmospheric pressure
HumidityMeteo Station%Relative humidity
Missing or incorrect values are displayed as -999
Metereological data collected by the RV Zeeleeuw from 2006-03-21 07:48:32 to 2006-03-21 13:15:32
Time Latitude Longitude Speed Direction Temperature Pressure Humidity
2006-03-21 07:49 51°13.6 2°56.095 -999 315 2.5 101140 62
2006-03-21 07:50 51°13.599 2°56.095 -999 43 2.5 101140 63
2006-03-21 07:51 51°13.599 2°56.095 -999 308 2.5 101150 63
2006-03-21 07:52 51°13.599 2°56.095 -999 315 2.5 101140 62
2006-03-21 07:53 51°13.597 2°56.094 -999 233 2.5 101150 62
2006-03-21 07:54 51°13.595 2°56.094 -999 275 2.5 101140 62
2006-03-21 07:55 51°13.595 2°56.094 -999 300 2.5 101140 62
2006-03-21 07:56 51°13.593 2°56.097 -999 319 2.5 101150 62
2006-03-21 07:57 51°13.592 2°56.097 -999 308 2.5 101150 62
2006-03-21 07:58 51°13.594 2°56.098 -999 309 2.5 101140 62
2006-03-21 07:59 51°13.595 2°56.098 -999 308 2.6 101140 62
2006-03-21 08:00 51°13.596 2°56.097 -999 273 2.6 101140 63
2006-03-21 08:01 51°13.596 2°56.097 -999 284 2.6 101150 63
2006-03-21 08:02 51°13.596 2°56.097 -999 313 2.6 101140 62
2006-03-21 08:03 51°13.599 2°56.082 -999 305 2.6 101140 62
2006-03-21 08:04 51°13.615 2°56.023 -999 321 2.6 101160 62
2006-03-21 08:05 51°13.641 2°55.931 -999 293 2.6 101160 62
2006-03-21 08:06 51°13.679 2°55.832 -999 267 2.6 101150 62
2006-03-21 08:07 51°13.723 2°55.74 -999 287 2.6 101150 63
2006-03-21 08:08 51°13.724 2°55.748 -999 353 2.6 101140 63
2006-03-21 08:09 51°13.72 2°55.723 -999 10 2.6 101150 63
2006-03-21 08:10 51°13.728 2°55.722 -999 13 2.6 101140 63
2006-03-21 08:11 51°13.72 2°55.708 -999 44 2.6 101150 63
2006-03-21 08:12 51°13.763 2°55.678 -999 47 2.6 101140 63
2006-03-21 08:13 51°13.871 2°55.6 -999 57 2.6 101150 63
2006-03-21 08:14 51°14.001 2°55.505 -999 55 2.5 101140 63
2006-03-21 08:15 51°14.126 2°55.418 -999 51 2.4 101130 64
2006-03-21 08:16 51°14.25 2°55.281 -999 97 2.5 101130 65
2006-03-21 08:17 51°14.337 2°55.106 -999 106 2.4 101140 68
2006-03-21 08:18 51°14.426 2°54.946 -999 82 2.5 101140 68
2006-03-21 08:19 51°14.565 2°54.771 -999 68 2.4 101120 70
2006-03-21 08:20 51°14.729 2°54.583 -999 62 2.4 101120 70
2006-03-21 08:21 51°14.898 2°54.39 -999 64 2.4 101120 70
2006-03-21 08:22 51°15.067 2°54.203 -999 69 2.4 101100 69
2006-03-21 08:23 51°15.24 2°54.021 -999 62 2.5 101110 67
2006-03-21 08:24 51°15.416 2°53.847 -999 62 2.5 101090 66
2006-03-21 08:25 51°15.591 2°53.671 -999 59 2.5 101090 65
2006-03-21 08:26 51°15.765 2°53.492 -999 59 2.5 101100 65
2006-03-21 08:27 51°15.939 2°53.312 -999 55 2.5 101060 65
2006-03-21 08:28 51°16.117 2°53.142 -999 57 2.5 101100 64
2006-03-21 08:29 51°16.298 2°52.993 -999 60 2.5 101080 63
2006-03-21 08:30 51°16.482 2°52.847 -999 50 2.5 101090 65
2006-03-21 08:31 51°16.67 2°52.716 -999 51 2.6 101080 65
2006-03-21 08:32 51°16.864 2°52.606 -999 52 2.5 101080 65
2006-03-21 08:33 51°17.061 2°52.518 -999 51 2.5 101080 62
2006-03-21 08:34 51°17.258 2°52.44 -999 53 2.5 101090 64
2006-03-21 08:35 51°17.459 2°52.401 -999 45 2.5 101100 65
2006-03-21 08:36 51°17.658 2°52.385 -999 49 2.5 101070 64
2006-03-21 08:37 51°17.858 2°52.401 -999 40 2.6 101090 64
2006-03-21 08:38 51°18.052 2°52.437 -999 42 2.6 101080 65
2006-03-21 08:39 51°18.24 2°52.488 -999 39 2.6 101090 64
2006-03-21 08:40 51°18.431 2°52.558 -999 31 2.5 101080 63
2006-03-21 08:41 51°18.619 2°52.639 -999 37 2.6 101080 64
2006-03-21 08:42 51°18.806 2°52.724 -999 32 2.6 101080 64
2006-03-21 08:43 51°18.99 2°52.827 -999 32 2.6 101090 63
2006-03-21 08:44 51°19.156 2°52.973 -999 25 2.6 101090 63
2006-03-21 08:45 51°19.311 2°53.151 -999 24 2.6 101090 64
2006-03-21 08:46 51°19.46 2°53.336 -999 18 2.6 101100 64
2006-03-21 08:47 51°19.609 2°53.524 -999 20 2.6 101100 63
2006-03-21 08:48 51°19.758 2°53.712 -999 24 2.6 101110 64
2006-03-21 08:49 51°19.909 2°53.898 -999 22 2.6 101140 62
2006-03-21 08:50 51°20.062 2°54.085 -999 23 2.6 101100 63
2006-03-21 08:51 51°20.214 2°54.27 -999 22 2.6 101110 62
2006-03-21 08:52 51°20.37 2°54.438 -999 29 2.7 101100 62
2006-03-21 08:53 51°20.555 2°54.543 -999 34 2.7 101100 65
2006-03-21 08:54 51°20.747 2°54.583 -999 49 2.7 101100 64
2006-03-21 08:55 51°20.948 2°54.609 -999 45 2.7 101090 65
2006-03-21 08:56 51°21.145 2°54.636 -999 44 2.6 101100 64
2006-03-21 08:57 51°21.343 2°54.665 -999 42 2.6 101080 63
2006-03-21 08:58 51°21.546 2°54.697 -999 43 2.6 101070 63
2006-03-21 08:59 51°21.746 2°54.731 -999 41 2.6 101080 63
2006-03-21 09:00 51°21.946 2°54.763 -999 37 2.6 101080 63
2006-03-21 09:01 51°22.147 2°54.795 -999 40 2.6 101090 64
2006-03-21 09:02 51°22.347 2°54.825 -999 33 2.6 101080 64
2006-03-21 09:03 51°22.533 2°54.902 -999 22 2.7 101100 65
2006-03-21 09:04 51°22.676 2°55.105 -999 10 2.7 101110 66
2006-03-21 09:05 51°22.805 2°55.321 -999 16 2.7 101110 65
2006-03-21 09:06 51°22.935 2°55.543 -999 18 2.7 101130 66
2006-03-21 09:07 51°23.065 2°55.766 -999 18 2.7 101130 65
2006-03-21 09:08 51°23.196 2°55.989 -999 10 2.7 101130 66
2006-03-21 09:09 51°23.321 2°56.214 -999 11 2.7 101120 64
2006-03-21 09:10 51°23.448 2°56.439 -999 13 2.7 101130 65
2006-03-21 09:11 51°23.572 2°56.666 -999 12 2.7 101130 64
2006-03-21 09:12 51°23.69 2°56.901 -999 13 2.7 101110 64
2006-03-21 09:13 51°23.808 2°57.137 -999 6 2.7 101120 63
2006-03-21 09:14 51°23.927 2°57.374 -999 11 2.7 101120 64
2006-03-21 09:15 51°24.051 2°57.604 -999 9 2.8 101130 64
2006-03-21 09:16 51°24.179 2°57.834 -999 7 2.8 101140 64
2006-03-21 09:17 51°24.305 2°58.063 -999 10 2.9 101130 65
2006-03-21 09:18 51°24.431 2°58.291 -999 10 2.9 101130 65
2006-03-21 09:19 51°24.564 2°58.51 -999 13 2.9 101140 64
2006-03-21 09:20 51°24.697 2°58.727 -999 10 3 101120 65
2006-03-21 09:21 51°24.831 2°58.944 -999 16 2.9 101130 63
2006-03-21 09:22 51°24.964 2°59.169 -999 14 2.9 101120 63
2006-03-21 09:23 51°25.097 2°59.397 -999 20 3 101130 66
2006-03-21 09:24 51°25.231 2°59.622 -999 17 2.9 101120 63
2006-03-21 09:25 51°25.366 2°59.852 -999 17 3 101130 64
2006-03-21 09:26 51°25.499 3°0.081 -999 5 3 101130 65
2006-03-21 09:27 51°25.632 3°0.312 -999 5 3 101140 64
2006-03-21 09:28 51°25.767 3°0.54 -999 12 3 101120 65
2006-03-21 09:29 51°25.909 3°0.751 -999 18 3 101130 64
2006-03-21 09:30 51°26.05 3°0.961 -999 14 3 101140 65
2006-03-21 09:31 51°26.19 3°1.176 -999 13 3 101130 64
2006-03-21 09:32 51°26.324 3°1.395 -999 14 3 101130 64
2006-03-21 09:33 51°26.457 3°1.613 -999 10 3 101120 64
2006-03-21 09:34 51°26.591 3°1.828 -999 12 3 101140 62
2006-03-21 09:35 51°26.724 3°2.04 -999 12 3 101130 63
2006-03-21 09:36 51°26.856 3°2.254 -999 11 3.1 101140 64
2006-03-21 09:37 51°26.989 3°2.471 -999 7 3 101130 62
2006-03-21 09:38 51°27.119 3°2.687 -999 10 3 101130 61
2006-03-21 09:39 51°27.249 3°2.902 -999 6 3 101130 62
2006-03-21 09:40 51°27.381 3°3.115 -999 9 2.9 101120 61
2006-03-21 09:41 51°27.514 3°3.335 -999 11 2.9 101130 63
2006-03-21 09:42 51°27.649 3°3.552 -999 9 2.9 101120 61
2006-03-21 09:43 51°27.782 3°3.77 -999 5 2.9 101130 61
2006-03-21 09:44 51°27.913 3°3.987 -999 7 2.9 101130 61
2006-03-21 09:45 51°28.049 3°4.207 -999 7 2.9 101120 60
2006-03-21 09:46 51°28.185 3°4.424 -999 14 3 101130 62
2006-03-21 09:47 51°28.315 3°4.639 -999 12 3 101120 62
2006-03-21 09:48 51°28.449 3°4.852 -999 14 3 101120 64
2006-03-21 09:49 51°28.584 3°5.068 -999 14 2.9 101120 61
2006-03-21 09:50 51°28.713 3°5.285 -999 11 2.9 101120 61
2006-03-21 09:51 51°28.828 3°5.522 -999 3 3 101130 61
2006-03-21 09:52 51°28.932 3°5.774 -999 6 3 101130 62
2006-03-21 09:53 51°29.038 3°6.028 -999 10 3 101130 63
2006-03-21 09:54 51°29.142 3°6.276 -999 4 2.9 101140 62
2006-03-21 09:55 51°29.245 3°6.528 -999 7 3 101120 62
2006-03-21 09:56 51°29.353 3°6.779 -999 4 2.9 101130 62
2006-03-21 09:57 51°29.461 3°7.036 -999 2 2.9 101130 62
2006-03-21 09:58 51°29.566 3°7.287 -999 3 2.9 101130 62
2006-03-21 09:59 51°29.668 3°7.535 -999 4 3 101140 62
2006-03-21 10:00 51°29.776 3°7.792 -999 356 3 101140 63
2006-03-21 10:01 51°29.882 3°8.048 -999 6 3 101130 63
2006-03-21 10:02 51°29.988 3°8.3 -999 8 3 101140 62
2006-03-21 10:03 51°30.085 3°8.561 -999 5 3 101130 61
2006-03-21 10:04 51°30.153 3°8.796 -999 358 3 101130 61
2006-03-21 10:05 51°30.177 3°8.894 -999 357 3 101160 61
2006-03-21 10:06 51°30.189 3°8.93 -999 9 3 101170 59
2006-03-21 10:07 51°30.195 3°8.941 -999 6 3 101170 59
2006-03-21 10:08 51°30.186 3°8.934 -999 2 3.1 101160 61
2006-03-21 10:09 51°30.171 3°8.938 -999 231 3.1 101150 62
2006-03-21 10:10 51°30.12 3°8.949 -999 251 3.1 101170 62
2006-03-21 10:11 51°30.047 3°8.885 -999 205 3.1 101180 61
2006-03-21 10:12 51°29.979 3°8.771 -999 167 3 101180 61
2006-03-21 10:13 51°29.912 3°8.637 -999 197 3.1 101180 64
2006-03-21 10:14 51°29.841 3°8.51 -999 183 3.5 101180 63
2006-03-21 10:15 51°29.772 3°8.376 -999 192 3.5 101180 57
2006-03-21 10:16 51°29.705 3°8.246 -999 166 3.5 101180 58
2006-03-21 10:17 51°29.663 3°8.153 -999 167 3.3 101180 56
2006-03-21 10:18 51°29.642 3°8.115 -999 151 3.2 101170 65
2006-03-21 10:19 51°29.622 3°8.062 -999 136 3 101160 61
2006-03-21 10:20 51°29.584 3°7.933 -999 176 3 101170 62
2006-03-21 10:21 51°29.505 3°7.788 -999 179 3.2 101170 61
2006-03-21 10:22 51°29.431 3°7.654 -999 197 3.2 101170 56
2006-03-21 10:23 51°29.361 3°7.524 -999 200 3.3 101180 58
2006-03-21 10:24 51°29.3 3°7.391 -999 169 3.4 101170 57
2006-03-21 10:25 51°29.23 3°7.269 -999 195 3.4 101180 62
2006-03-21 10:26 51°29.181 3°7.179 -999 190 3.5 101170 59
2006-03-21 10:27 51°29.154 3°7.13 -999 191 3.5 101180 56
2006-03-21 10:28 51°29.126 3°7.071 -999 161 3.4 101160 57
2006-03-21 10:29 51°29.08 3°6.966 -999 178 3.2 101160 60
2006-03-21 10:30 51°29.011 3°6.81 -999 172 3.3 101170 64
2006-03-21 10:31 51°28.931 3°6.611 -999 177 3.5 101160 64
2006-03-21 10:32 51°28.852 3°6.407 -999 152 3.5 101170 60
2006-03-21 10:33 51°28.791 3°6.248 -999 197 3.4 101160 59
2006-03-21 10:34 51°28.737 3°6.128 -999 181 3.4 101160 59
2006-03-21 10:35 51°28.708 3°6.067 -999 182 3.3 101170 60
2006-03-21 10:36 51°28.683 3°6.022 -999 179 3.3 101170 60
2006-03-21 10:37 51°28.657 3°5.969 -999 163 3.1 101160 60
2006-03-21 10:38 51°28.633 3°5.912 -999 147 3.1 101150 62
2006-03-21 10:39 51°28.616 3°5.841 -999 122 3 101140 61
2006-03-21 10:40 51°28.66 3°5.79 -999 16 3.1 101130 62
2006-03-21 10:41 51°28.674 3°5.896 -999 358 3.1 101110 60
2006-03-21 10:42 51°28.693 3°5.961 -999 10 3.2 101140 61
2006-03-21 10:43 51°28.729 3°6.007 -999 30 3.3 101130 62
2006-03-21 10:44 51°28.734 3°6.005 -999 20 3.2 101140 61
2006-03-21 10:45 51°28.727 3°5.985 -999 28 3.3 101150 60
2006-03-21 10:46 51°28.744 3°5.933 -999 111 3.2 101120 59
2006-03-21 10:47 51°28.72 3°5.78 -999 171 3.1 101150 61
2006-03-21 10:48 51°28.629 3°5.594 -999 183 3.5 101170 60
2006-03-21 10:49 51°28.517 3°5.35 -999 205 3.9 101170 57
2006-03-21 10:50 51°28.394 3°5.082 -999 194 3.8 101160 56
2006-03-21 10:51 51°28.268 3°4.806 -999 198 4.1 101170 58
2006-03-21 10:52 51°28.142 3°4.537 -999 178 4.1 101160 57
2006-03-21 10:53 51°28.013 3°4.268 -999 198 4.2 101160 60
2006-03-21 10:54 51°27.878 3°3.996 -999 204 4.3 101170 57
2006-03-21 10:55 51°27.745 3°3.74 -999 198 4.1 101170 59
2006-03-21 10:56 51°27.608 3°3.471 -999 218 4 101160 59
2006-03-21 10:57 51°27.476 3°3.204 -999 194 4.1 101160 59
2006-03-21 10:58 51°27.342 3°2.942 -999 190 4.2 101170 57
2006-03-21 10:59 51°27.204 3°2.668 -999 195 4.2 101170 56
2006-03-21 11:00 51°27.075 3°2.399 -999 177 4.4 101160 57
2006-03-21 11:01 51°26.94 3°2.123 -999 175 4.3 101170 56
2006-03-21 11:02 51°26.806 3°1.852 -999 171 4.4 101160 57
2006-03-21 11:03 51°26.673 3°1.578 -999 194 4.4 101160 58
2006-03-21 11:04 51°26.538 3°1.314 -999 169 4.4 101170 57
2006-03-21 11:05 51°26.408 3°1.052 -999 201 4.5 101170 56
2006-03-21 11:06 51°26.272 3°0.784 -999 186 4.5 101160 56
2006-03-21 11:07 51°26.139 3°0.528 -999 176 4.4 101170 57
2006-03-21 11:08 51°26.007 3°0.266 -999 184 4.3 101160 58
2006-03-21 11:09 51°25.871 3°0.026 -999 202 4.3 101170 57
2006-03-21 11:10 51°25.729 2°59.792 -999 199 4.2 101170 57
2006-03-21 11:11 51°25.575 2°59.581 -999 233 4.1 101170 57
2006-03-21 11:12 51°25.418 2°59.382 -999 218 4 101170 59
2006-03-21 11:13 51°25.258 2°59.17 -999 217 3.8 101170 57
2006-03-21 11:14 51°25.102 2°58.964 -999 216 3.7 101160 60
2006-03-21 11:15 51°24.945 2°58.76 -999 219 3.7 101170 59
2006-03-21 11:16 51°24.791 2°58.558 -999 225 3.5 101170 58
2006-03-21 11:17 51°24.641 2°58.361 -999 208 3.5 101170 60
2006-03-21 11:18 51°24.489 2°58.159 -999 221 3.4 101170 58
2006-03-21 11:19 51°24.35 2°57.95 -999 196 3.4 101160 59
2006-03-21 11:20 51°24.249 2°57.724 -999 158 3.6 101160 57
2006-03-21 11:21 51°24.149 2°57.496 -999 161 3.5 101170 59
2006-03-21 11:22 51°24.049 2°57.271 -999 170 3.3 101150 58
2006-03-21 11:23 51°23.949 2°57.046 -999 163 3.3 101160 60
2006-03-21 11:24 51°23.847 2°56.82 -999 181 3.2 101160 59
2006-03-21 11:25 51°23.746 2°56.598 -999 167 3.4 101160 60
2006-03-21 11:26 51°23.645 2°56.375 -999 167 3.3 101160 57
2006-03-21 11:27 51°23.551 2°56.144 -999 156 3.2 101150 58
2006-03-21 11:28 51°23.458 2°55.917 -999 172 3.2 101160 59
2006-03-21 11:29 51°23.363 2°55.672 -999 154 3.2 101160 58
2006-03-21 11:30 51°23.27 2°55.421 -999 150 3.2 101150 60
2006-03-21 11:31 51°23.168 2°55.147 -999 159 3.2 101160 61
2006-03-21 11:32 51°23.058 2°54.855 -999 143 3.2 101160 61
2006-03-21 11:33 51°22.951 2°54.55 -999 164 3.2 101160 61
2006-03-21 11:34 51°22.843 2°54.25 -999 154 3.3 101160 62
2006-03-21 11:35 51°22.737 2°53.965 -999 154 3.2 101160 61
2006-03-21 11:36 51°22.675 2°53.779 -999 154 3.2 101150 61
2006-03-21 11:37 51°22.629 2°53.66 -999 164 3.2 101150 62
2006-03-21 11:38 51°22.589 2°53.558 -999 167 3.2 101140 59
2006-03-21 11:39 51°22.552 2°53.493 -999 201 3.3 101160 60
2006-03-21 11:40 51°22.546 2°53.476 -999 214 3.4 101160 61
2006-03-21 11:41 51°22.53 2°53.448 -999 187 3.5 101170 59
2006-03-21 11:42 51°22.483 2°53.337 -999 146 3.5 101160 61
2006-03-21 11:43 51°22.449 2°53.202 -999 133 3.3 101140 61
2006-03-21 11:44 51°22.42 2°53.053 -999 144 3.3 101150 60
2006-03-21 11:45 51°22.368 2°52.871 -999 148 3.3 101150 63
2006-03-21 11:46 51°22.334 2°52.743 -999 133 3.2 101140 60
2006-03-21 11:47 51°22.309 2°52.711 -999 151 3.2 101130 62
2006-03-21 11:48 51°22.282 2°52.704 -999 130 3.2 101130 62
2006-03-21 11:49 51°22.255 2°52.67 -999 132 3.2 101140 61
2006-03-21 11:50 51°22.225 2°52.536 -999 153 3.2 101140 61
2006-03-21 11:51 51°22.158 2°52.375 -999 161 3.2 101150 61
2006-03-21 11:52 51°22.086 2°52.198 -999 153 3.2 101150 61
2006-03-21 11:53 51°22.045 2°52.092 -999 164 3.2 101130 62
2006-03-21 11:54 51°22.026 2°52.076 -999 172 3.2 101150 58
2006-03-21 11:55 51°22 2°52.039 -999 160 3.2 101140 59
2006-03-21 11:56 51°21.969 2°51.955 -999 142 3.2 101130 60
2006-03-21 11:57 51°21.927 2°51.812 -999 159 3.2 101140 59
2006-03-21 11:58 51°21.855 2°51.663 -999 166 3.2 101150 59
2006-03-21 11:59 51°21.778 2°51.528 -999 178 3.2 101150 59
2006-03-21 12:00 51°21.745 2°51.474 -999 159 3.2 101150 58
2006-03-21 12:01 51°21.723 2°51.445 -999 133 3.2 101130 58
2006-03-21 12:02 51°21.697 2°51.41 -999 127 3.2 101140 58
2006-03-21 12:03 51°21.665 2°51.4 -999 145 3.2 101130 57
2006-03-21 12:04 51°21.638 2°51.38 -999 137 3.2 101130 56
2006-03-21 12:05 51°21.607 2°51.302 -999 165 3.2 101130 58
2006-03-21 12:06 51°21.548 2°51.164 -999 184 3.2 101150 58
2006-03-21 12:07 51°21.473 2°51.009 -999 176 3.2 101150 61
2006-03-21 12:08 51°21.391 2°50.861 -999 179 3.3 101150 59
2006-03-21 12:09 51°21.343 2°50.776 -999 199 3.6 101150 60
2006-03-21 12:10 51°21.333 2°50.755 -999 205 3.4 101150 58
2006-03-21 12:11 51°21.311 2°50.72 -999 215 3.3 101150 58
2006-03-21 12:12 51°21.269 2°50.664 -999 212 3.2 101150 57
2006-03-21 12:13 51°21.21 2°50.575 -999 185 3.3 101150 60
2006-03-21 12:14 51°21.148 2°50.478 -999 184 3.5 101150 57
2006-03-21 12:15 51°21.087 2°50.366 -999 170 3.5 101140 59
2006-03-21 12:16 51°21.028 2°50.253 -999 157 3.4 101140 59
2006-03-21 12:17 51°20.999 2°50.19 -999 162 3.3 101130 59
2006-03-21 12:18 51°20.972 2°50.157 -999 153 3.2 101120 60
2006-03-21 12:19 51°20.945 2°50.109 -999 143 3.2 101120 60
2006-03-21 12:20 51°20.905 2°49.996 -999 170 3.2 101130 58
2006-03-21 12:21 51°20.823 2°49.871 -999 212 3.2 101140 59
2006-03-21 12:22 51°20.719 2°49.751 -999 208 3.2 101130 60
2006-03-21 12:23 51°20.61 2°49.631 -999 191 3.2 101140 60
2006-03-21 12:24 51°20.552 2°49.547 -999 205 3.2 101150 58
2006-03-21 12:25 51°20.54 2°49.52 -999 190 3.2 101130 60
2006-03-21 12:26 51°20.52 2°49.48 -999 189 3.3 101130 61
2006-03-21 12:27 51°20.47 2°49.424 -999 255 3.4 101130 57
2006-03-21 12:28 51°20.362 2°49.482 -999 305 3.4 101140 59
2006-03-21 12:29 51°20.191 2°49.657 -999 298 3.4 101090 58
2006-03-21 12:30 51°20.007 2°49.841 -999 298 3.5 101090 59
2006-03-21 12:31 51°19.822 2°50.019 -999 298 3.5 101080 58
2006-03-21 12:32 51°19.647 2°50.18 -999 287 3.5 101080 57
2006-03-21 12:33 51°19.5 2°50.312 -999 288 3.5 101090 61
2006-03-21 12:34 51°19.343 2°50.456 -999 296 3.5 101080 60
2006-03-21 12:35 51°19.151 2°50.626 -999 291 3.5 101080 58
2006-03-21 12:36 51°18.963 2°50.792 -999 299 3.4 101070 58
2006-03-21 12:37 51°18.771 2°50.966 -999 295 3.4 101080 60
2006-03-21 12:38 51°18.579 2°51.137 -999 294 3.4 101070 58
2006-03-21 12:39 51°18.388 2°51.315 -999 286 3.4 101060 58
2006-03-21 12:40 51°18.197 2°51.493 -999 300 3.4 101070 60
2006-03-21 12:41 51°18.016 2°51.678 -999 293 3.4 101070 60
2006-03-21 12:42 51°17.827 2°51.866 -999 295 3.4 101070 61
2006-03-21 12:43 51°17.64 2°52.038 -999 290 3.4 101070 61
2006-03-21 12:44 51°17.439 2°52.199 -999 290 3.5 101070 60
2006-03-21 12:45 51°17.235 2°52.325 -999 290 3.4 101080 61
2006-03-21 12:46 51°17.033 2°52.47 -999 290 3.4 101060 59
2006-03-21 12:47 51°16.835 2°52.631 -999 285 3.4 101070 59
2006-03-21 12:48 51°16.634 2°52.786 -999 289 3.5 101060 60
2006-03-21 12:49 51°16.435 2°52.943 -999 292 3.5 101070 61
2006-03-21 12:50 51°16.241 2°53.106 -999 286 3.5 101050 60
2006-03-21 12:51 51°16.046 2°53.272 -999 291 3.5 101060 59
2006-03-21 12:52 51°15.915 2°53.369 -999 284 3.5 101060 60
2006-03-21 12:53 51°15.768 2°53.493 -999 293 3.4 101060 61
2006-03-21 12:54 51°15.592 2°53.67 -999 289 3.4 101050 60
2006-03-21 12:55 51°15.403 2°53.844 -999 297 3.5 101050 60
2006-03-21 12:56 51°15.226 2°54.031 -999 299 3.5 101050 62
2006-03-21 12:57 51°15.042 2°54.208 -999 294 3.5 101060 60
2006-03-21 12:58 51°14.861 2°54.395 -999 299 3.5 101040 59
2006-03-21 12:59 51°14.685 2°54.591 -999 303 3.5 101050 60
2006-03-21 13:00 51°14.515 2°54.798 -999 313 3.5 101040 62
2006-03-21 13:01 51°14.371 2°55.035 -999 315 3.6 101030 62
2006-03-21 13:02 51°14.258 2°55.27 -999 291 3.6 101040 62
2006-03-21 13:03 51°14.133 2°55.404 -999 270 3.5 101060 60
2006-03-21 13:04 51°14.03 2°55.482 -999 261 3.6 101070 59
2006-03-21 13:05 51°13.941 2°55.545 -999 271 3.6 101070 59
2006-03-21 13:06 51°13.861 2°55.604 -999 267 3.8 101080 58
2006-03-21 13:07 51°13.791 2°55.663 -999 288 3.8 101070 56
2006-03-21 13:08 51°13.735 2°55.742 -999 313 3.8 101060 56
2006-03-21 13:09 51°13.686 2°55.829 -999 295 3.9 101060 56
2006-03-21 13:10 51°13.644 2°55.924 -999 299 4 101060 55
2006-03-21 13:11 51°13.617 2°56.01 -999 291 4 101060 53
2006-03-21 13:12 51°13.605 2°56.069 -999 298 4 101060 53
2006-03-21 13:13 51°13.599 2°56.089 -999 301 4.1 101060 54
2006-03-21 13:14 51°13.599 2°56.089 -999 287 4.3 101060 53